Etusivu
METAR-TAF:

METAR-TAF

Lentoasemat :

Granite Falls Municipal Airport (Lenzen-Roe Memorial Field)

Granite Falls, Minnesota, Yhdysvallat

Leveyspiiri: 44-45-11N, Pituuspiiri: 095-33-21W, korkeus merenpinnasta: 319 m

Tämänhetkinen sää

Tämä raportti tehtiin 24 minuuttia sitten, kello 18.35 UTC
Tuuli 9 kn etelästä/lounaasta puuskistuen 14 kn:hen
Lämpötila 18°C
Kosteus 88%
Ilmanpaine 1008 hPa
Näkyvyys: 16.1 km
Hajonneita pilviä 1700 ft:n korkeudessa
Pilvistä 2200 ft:n korkeudessa

METAR: KGDB 241835Z AUTO 20009G14KT 10SM BKN017 OVC022 18/16 A2977 RMK AO2 T01820155

Aika: 13:59 (18:59 UTC)


TAF: puuttuu

Säähavainnot ja -ennusteet yli 4000 lentoasemalta (METAR- ja TAF-raportit).

Käytössä olevat sääasemat on merkitty karttaan keltaisilla ja punaisilla pisteillä.

Aseta hiiri pisteen päälle nähdäksesi sääaseman nimen.

Klikkaa sitten nähdäksesi säähavainnot ja -ennusteet.

Kartan vaihtaminen: klikkaa mustalla rastilla varustettuja vihreitä pisteitä, niin voit zoomata sisään; viivalla varustettua vihreää pistettä, niin voit zoomata ulos tai vihreitä nuolia, niin pääset viereisille kartoille.


METAR-TAF: